AU298 Weather Reports


time (UTC)temp
C
wind
direction
speed
KPH
gust
KPH
rain 1hr
cm
rain 24hr
cm
rain mn
cm
humidity
%
barometer
mb
20260502225511 15 141 0.0 0.0 0.00 0.00 0.00 36 1010.2
20260502225011 15 167 1.6 0.0 0.00 0.00 0.00 36 1010.2
20260502224511 15 190 4.8 0.0 0.00 0.00 0.00 35 1010.3
20260502224011 15 293 3.2 1.6 0.00 0.00 0.00 35 1010.4
20260502223512 15 264 3.2 1.6 0.00 0.00 0.00 36 1010.5
20260502223012 15 303 9.7 1.6 0.00 0.00 0.00 35 1010.5
20260502222511 15 264 3.2 1.6 0.00 0.00 0.00 35 1010.6
20260502222012 15 220 1.6 1.6 0.00 0.00 0.00 38 1010.6
20260502221512 15 295 4.8 1.6 0.00 0.00 0.00 36 1010.7
20260502221011 15 246 4.8 1.6 0.00 0.00 0.00 37 1010.8
20260502220511 15 323 8.0 1.6 0.00 0.00 0.00 36 1010.8
20260502220012 15 242 0.0 1.6 0.00 0.00 0.00 36 1010.8
20260502215011 15 263 3.2 1.6 0.00 0.00 0.00 35 1011.0
20260502214511 15 230 17.7 1.6 0.00 0.00 0.00 35 1011.1
20260502214011 15 309 4.8 1.6 0.00 0.00 0.00 36 1011.0
20260502213511 15 238 4.8 1.6 0.00 0.00 0.00 35 1011.1
20260502213011 15 160 3.2 1.6 0.00 0.00 0.00 36 1011.2
20260502212511 15 221 6.4 1.6 0.00 0.00 0.00 36 1011.2
20260502212011 15 248 4.8 1.6 0.00 0.00 0.00 35 1011.3
20260502211012 15 243 8.0 1.6 0.00 0.00 0.00 34 1011.5
20260502210511 15 288 6.4 1.6 0.00 0.00 0.00 35 1011.5
20260502205512 15 226 8.0 1.6 0.00 0.00 0.00 35 1011.6
20260502204512 15 262 9.7 1.6 0.00 0.00 0.00 35 1011.8
20260502204011 15 221 14.5 1.6 0.00 0.00 0.00 34 1011.9
20260502203511 15 309 4.8 1.6 0.00 0.00 0.00 36 1011.9
20260502203011 14 319 4.8 1.6 0.00 0.00 0.00 35 1012.0
20260502202512 15 304 9.7 1.6 0.00 0.00 0.00 34 1012.3
20260502202011 14 290 3.2 1.6 0.00 0.00 0.00 34 1012.3
20260502201511 15 326 8.0 1.6 0.00 0.00 0.00 34 1012.5
20260502201011 15 25 0.0 1.6 0.00 0.00 0.00 33 1012.6
20260502200511 15 292 0.0 1.6 0.00 0.00 0.00 35 1012.8
20260502200011 13 334 4.8 1.6 0.00 0.00 0.00 34 1012.9
20260502195511 13 294 4.8 1.6 0.00 0.00 0.00 36 1013.0
20260502195011 13 255 4.8 1.6 0.00 0.00 0.00 35 1013.1
20260502194511 13 263 9.7 1.6 0.00 0.00 0.00 35 1013.2
20260502194011 14 255 12.9 3.2 0.00 0.00 0.00 34 1013.2
20260502193512 14 231 9.7 3.2 0.00 0.00 0.00 34 1013.3
20260502193012 15 241 8.0 3.2 0.00 0.00 0.00 35 1013.4
20260502192511 13 179 6.4 1.6 0.00 0.00 0.00 34 1013.5
20260502192011 14 234 14.5 3.2 0.00 0.00 0.00 35 1013.6
20260502191511 13 182 1.6 3.2 0.00 0.00 0.00 34 1013.6
20260502191011 13 294 8.0 1.6 0.00 0.00 0.00 34 1013.8
20260502190511 14 221 9.7 1.6 0.00 0.00 0.00 34 1013.8
20260502185512 13 290 6.4 1.6 0.00 0.00 0.00 34 1014.0
20260502185011 13 195 8.0 1.6 0.00 0.00 0.00 35 1014.0
20260502184511 13 130 3.2 1.6 0.00 0.00 0.00 32 1014.0
20260502184011 13 160 9.7 1.6 0.00 0.00 0.00 34 1014.0
20260502183512 13 175 6.4 1.6 0.00 0.00 0.00 34 1014.1
20260502183011 13 198 8.0 1.6 0.00 0.00 0.00 33 1014.2
20260502182511 13 149 3.2 1.6 0.00 0.00 0.00 33 1014.3
20260502182011 13 244 11.3 1.6 0.00 0.00 0.00 34 1014.4
20260502181511 13 148 3.2 1.6 0.00 0.00 0.00 34 1014.3
20260502181011 13 215 1.6 1.6 0.00 0.00 0.00 33 1014.5
20260502170510 11 217 0.0 1.6 0.00 0.00 0.00 35 1015.7
20260502164011 11 289 3.2 1.6 0.00 0.00 0.00 36 1016.4
20260502163511 11 317 3.2 0.0 0.00 0.00 0.00 36 1016.4
20260502163011 11 132 3.2 1.6 0.00 0.00 0.00 37 1016.5
20260502162511 10 154 4.8 1.6 0.00 0.00 0.00 36 1016.6
20260502162012 10 141 8.0 1.6 0.00 0.00 0.00 37 1016.7
20260502161011 10 272 0.0 1.6 0.00 0.00 0.00 38 1016.8
20260502160511 10 316 0.0 1.6 0.00 0.00 0.00 41 1016.8
20260502152011 9 276 4.8 1.6 0.00 0.00 0.00 37 1017.5
20260502151511 9 325 3.2 1.6 0.00 0.00 0.00 38 1017.6
20260502151011 9 316 3.2 1.6 0.00 0.00 0.00 39 1017.7
20260502150510 8 319 3.2 1.6 0.00 0.00 0.00 39 1017.8
20260502130511 5 250 0.0 1.6 0.00 0.00 0.00 58 1018.1
20260502123511 3 225 0.0 0.0 0.00 0.00 0.00 55 1018.1
20260502123010 3 219 0.0 0.0 0.00 0.00 0.00 57 1018.1
20260502122011 2 233 0.0 0.0 0.00 0.00 0.00 59 1018.1
20260502121510 2 239 0.0 0.0 0.00 0.00 0.00 58 1018.1
20260502120511 1 231 0.0 0.0 0.00 0.00 0.00 61 1018.2
20260502115511 1 231 0.0 0.0 0.00 0.00 0.00 62 1018.2
20260502115011 1 231 0.0 0.0 0.00 0.00 0.00 63 1018.2
20260502114511 0 205 0.0 0.0 0.00 0.00 0.00 64 1018.3
20260502114010 0 204 0.0 0.0 0.00 0.00 0.00 65 1018.4
20260502113511 0 204 0.0 0.0 0.00 0.00 0.00 66 1018.4
20260502113011 0 204 0.0 0.0 0.00 0.00 0.00 67 1018.4
20260502112511 0 221 0.0 0.0 0.00 0.00 0.00 68 1018.4
20260502112011 0 221 0.0 0.0 0.00 0.00 0.00 68 1018.4
20260502111511 0 221 0.0 0.0 0.00 0.00 0.00 68 1018.4
20260502110511 0 211 0.0 0.0 0.00 0.00 0.00 69 1018.2
20260502110010 0 211 0.0 0.0 0.00 0.00 0.00 71 1018.2
20260502105511 0 211 0.0 0.0 0.00 0.00 0.00 72 1018.2
20260502105010 0 211 0.0 0.0 0.00 0.00 0.00 71 1018.3
20260502104511 0 211 0.0 0.0 0.00 0.00 0.00 70 1018.3
20260502104010 0 211 0.0 0.0 0.00 0.00 0.00 69 1018.3
20260502103511 0 211 0.0 0.0 0.00 0.00 0.00 69 1018.3
20260502103010 0 208 0.0 0.0 0.00 0.00 0.00 68 1018.2
20260502102511 0 209 0.0 0.0 0.00 0.00 0.00 68 1018.4
20260502102011 0 200 0.0 0.0 0.00 0.00 0.00 67 1018.4
20260502101011 0 191 0.0 0.0 0.00 0.00 0.00 70 1018.4
20260502100511 0 190 0.0 0.0 0.00 0.00 0.00 73 1018.5
20260502091511 0 190 0.0 0.0 0.00 0.00 0.00 80 1018.6
20260502091011 -1 190 0.0 0.0 0.00 0.00 0.00 74 1018.5
20260502090511 -1 191 0.0 0.0 0.00 0.00 0.00 74 1018.5
20260502071511 0 203 0.0 0.0 0.00 0.00 0.00 70 1019.2
20260502071011 0 203 0.0 0.0 0.00 0.00 0.00 71 1019.1
20260502070510 0 155 0.0 0.0 0.00 0.00 0.00 75 1019.3
20260502070012 0 155 0.0 0.0 0.00 0.00 0.00 72 1019.2
20260502065511 0 155 3.2 0.0 0.00 0.00 0.00 71 1019.3
20260502065011 0 148 0.0 0.0 0.00 0.00 0.00 69 1019.4
20260502064511 1 62 0.0 0.0 0.00 0.00 0.00 68 1019.3
20260502064010 1 62 0.0 0.0 0.00 0.00 0.00 57 1019.4
20260502063511 1 62 0.0 0.0 0.00 0.00 0.00 59 1019.4
20260502062510 0 62 0.0 0.0 0.00 0.00 0.00 69 1019.5
20260502062010 1 62 0.0 0.0 0.00 0.00 0.00 62 1019.4
20260502061011 1 62 0.0 0.0 0.00 0.00 0.00 60 1019.5
20260502060011 1 62 0.0 0.0 0.00 0.00 0.00 59 1019.5
20260502055510 1 62 0.0 0.0 0.00 0.00 0.00 54 1019.6
20260502055011 1 62 0.0 0.0 0.00 0.00 0.00 57 1019.6
20260502054511 1 62 0.0 0.0 0.00 0.00 0.00 58 1019.6
20260502054010 1 62 0.0 0.0 0.00 0.00 0.00 54 1019.6
20260502053511 1 62 0.0 0.0 0.00 0.00 0.00 53 1019.6
20260502052510 2 62 0.0 0.0 0.00 0.00 0.00 51 1019.6
20260502051510 1 62 0.0 0.0 0.00 0.00 0.00 51 1019.6
20260502051011 2 62 0.0 0.0 0.00 0.00 0.00 50 1019.7
20260502050511 2 62 0.0 0.0 0.00 0.00 0.00 48 1019.7
20260502050011 3 62 0.0 0.0 0.00 0.00 0.00 48 1019.7
20260502045510 2 62 0.0 0.0 0.00 0.00 0.00 50 1019.7
20260502044010 3 62 0.0 0.0 0.00 0.00 0.00 48 1019.8
20260502043511 2 62 0.0 0.0 0.00 0.00 0.00 52 1019.8
20260502043010 2 62 0.0 0.0 0.00 0.00 0.00 52 1019.8
20260502042510 3 62 0.0 0.0 0.00 0.00 0.00 50 1019.9
20260502042011 3 62 0.0 0.0 0.00 0.00 0.00 50 1019.9
20260502041511 3 62 0.0 0.0 0.00 0.00 0.00 49 1019.9
20260502041010 3 62 0.0 0.0 0.00 0.00 0.00 51 1019.9
20260502040511 2 62 0.0 0.0 0.00 0.00 0.00 57 1019.9
20260502040011 2 62 0.0 0.0 0.00 0.00 0.00 60 1019.9
20260502035510 2 62 0.0 0.0 0.00 0.00 0.00 57 1020.0
20260502035011 2 62 0.0 0.0 0.00 0.00 0.00 58 1019.9
20260502034510 3 62 0.0 0.0 0.00 0.00 0.00 55 1020.0
20260502034010 3 62 0.0 0.0 0.00 0.00 0.00 50 1020.0
20260502033510 3 62 0.0 0.0 0.00 0.00 0.00 50 1020.0
20260502033010 4 62 0.0 0.0 0.00 0.00 0.00 50 1020.0
20260502032511 4 62 0.0 0.0 0.00 0.00 0.00 51 1020.1
20260502032011 4 62 0.0 0.0 0.00 0.00 0.00 52 1020.0
20260502031511 4 62 0.0 0.0 0.00 0.00 0.00 52 1020.0
20260502031011 5 62 0.0 0.0 0.00 0.00 0.00 50 1020.0
20260502030510 5 62 0.0 0.0 0.00 0.00 0.00 51 1020.0
20260502030011 3 62 0.0 0.0 0.00 0.00 0.00 58 1020.0
20260502025510 3 62 0.0 0.0 0.00 0.00 0.00 63 1020.0
20260502025011 3 62 0.0 0.0 0.00 0.00 0.00 63 1020.0
20260502024511 4 315 0.0 0.0 0.00 0.00 0.00 60 1020.1
20260502024010 4 315 0.0 0.0 0.00 0.00 0.00 53 1020.0
20260502023511 4 315 0.0 0.0 0.00 0.00 0.00 63 1020.0
20260502023010 4 315 0.0 0.0 0.00 0.00 0.00 53 1020.1
20260502022510 5 315 0.0 0.0 0.00 0.00 0.00 49 1019.9
20260502022011 5 315 0.0 0.0 0.00 0.00 0.00 47 1020.0
20260502021511 6 356 0.0 0.0 0.00 0.00 0.00 45 1020.0
20260502020510 6 19 0.0 0.0 0.00 0.00 0.00 43 1019.6
20260502020011 6 19 0.0 0.0 0.00 0.00 0.00 43 1019.7
20260502015511 6 19 0.0 0.0 0.00 0.00 0.00 44 1019.7
20260502014511 6 20 0.0 0.0 0.00 0.00 0.00 43 1019.7
20260502014011 6 20 0.0 0.0 0.00 0.00 0.00 42 1019.5
20260502013511 6 20 0.0 0.0 0.00 0.00 0.00 41 1019.5
20260502013011 6 20 0.0 0.0 0.00 0.00 0.00 41 1019.4
20260502012511 7 19 0.0 0.0 0.00 0.00 0.00 40 1019.4
20260502012012 7 26 0.0 0.0 0.00 0.00 0.00 41 1019.4
20260502011512 7 339 0.0 0.0 0.00 0.00 0.00 40 1019.4
20260502011011 7 339 0.0 0.0 0.00 0.00 0.00 39 1019.3
20260502010512 8 339 0.0 0.0 0.00 0.00 0.00 38 1019.3
20260502010012 8 339 0.0 0.0 0.00 0.00 0.00 37 1019.4
20260502005512 8 339 0.0 0.0 0.00 0.00 0.00 37 1019.4
20260502005012 8 8 1.6 0.0 0.00 0.00 0.00 38 1019.4
20260502004012 8 347 0.0 0.0 0.00 0.00 0.00 39 1019.3
20260502003512 8 354 0.0 0.0 0.00 0.00 0.00 38 1019.4
20260502003012 8 327 0.0 0.0 0.00 0.00 0.00 39 1019.3
20260502002512 8 66 0.0 0.0 0.00 0.00 0.00 38 1019.4
20260502002012 8 301 1.6 0.0 0.00 0.00 0.00 38 1019.3
20260502001512 8 62 0.0 0.0 0.00 0.00 0.00 36 1019.3
20260502001012 9 25 0.0 0.0 0.00 0.00 0.00 36 1019.2
20260502000512 9 316 0.0 1.6 0.00 0.00 0.00 38 1019.3
20260502000011 8 18 1.6 1.6 0.00 0.00 0.00 37 1019.3
20260501235513 8 331 3.2 1.6 0.00 0.00 0.00 37 1019.3
20260501235012 9 30 3.2 1.6 0.00 0.00 0.00 35 1019.3
20260501234512 9 8 6.4 1.6 0.00 0.00 0.00 36 1019.3
20260501234012 9 44 1.6 1.6 0.00 0.00 0.00 35 1019.3
20260501233512 9 4 3.2 1.6 0.00 0.00 0.00 35 1019.4
20260501232512 9 342 6.4 1.6 0.00 0.00 0.00 36 1019.4
20260501232012 8 347 1.6 1.6 0.00 0.00 0.00 37 1019.4
20260501231513 8 41 4.8 1.6 0.00 0.00 0.00 36 1019.3
20260501231012 8 350 3.2 1.6 0.00 0.00 0.00 41 1019.5
20260501230511 8 17 0.0 1.6 0.00 0.00 0.00 37 1019.5